User: anonymous   Login
Location: Marseilles
(40.7010°N, 83.3930°W)
Time: 18:47:55
(UTC-04:00)
Language:

Cosmos 1459 Rocket - Orbit

View from above orbital plane
View from above orbital plane
View from above satellite
View from above satellite

Ground track
Ground track

The orbit data is extracted from the following two-line orbital elements,

1 14059U 83042B   17179.59737409 +.00000070 +00000-0 +54016-4 0  9992
2 14059 082.9720 053.4692 0041434 233.8116 125.9208 13.78591848717060
Epoch (UTC): 28 June 2017 14:20:13
Eccentricity: 0.0041434
inclination: 82.9720°
perigee height: 938 km
apogee height: 999 km
right ascension of ascending node: 53.4692°
argument of perigee: 233.8116°
revolutions per day: 13.78591848
mean anomaly at epoch: 125.9208°
orbit number at epoch: 71706

The dashed part of the orbit path shows where the satellite is in the earth's shadow,  

DLR